Date,TemperatureHighF,TemperatureAvgF,TemperatureLowF,DewpointHighF,DewpointAvgF,DewpointLowF,HumidityHigh,HumidityAvg,HumidityLow,PressureMaxIn,PressureMinIn,WindSpeedMaxMPH,WindSpeedAvgMPH,GustSpeedMaxMPH,PrecipitationSumIn
2013-1-1,37.0,34.1,31.0,37.0,34.1,31.0,100,100,100,0.00,40.00,2,1,3,0.00
2013-1-2,36.0,32.9,32.0,36.0,32.9,32.0,100,100,100,0.00,40.00,1,0,2,0.00
2013-1-3,33.0,31.8,30.0,33.0,31.8,30.0,100,100,100,0.00,40.00,1,0,1,0.00
2013-1-4,40.0,38.4,35.0,39.0,-1.4,-99.9,100,71,100,0.00,40.00,1,1,2,0.00
2013-1-5,43.0,39.3,35.0,43.0,39.3,35.0,100,100,100,0.00,40.00,5,1,7,0.00
2013-1-6,39.0,35.8,31.0,39.0,35.8,31.0,100,100,100,0.00,40.00,1,1,2,0.00
2013-1-7,46.0,40.0,34.0,46.0,40.0,34.0,100,100,100,0.00,40.00,3,1,5,0.00
2013-1-8,44.0,39.2,34.0,44.0,24.8,-99.9,100,90,100,0.00,40.00,1,1,2,0.00
2013-1-9,44.0,38.2,31.0,44.0,38.2,31.0,100,100,100,0.00,40.00,2,1,3,0.00
2013-1-10,33.0,31.3,28.0,33.0,31.3,28.0,100,100,100,0.00,40.00,3,1,5,0.00
2013-1-11,32.0,28.9,24.0,32.0,28.9,24.0,100,100,100,0.00,40.00,2,0,3,0.00
2013-1-12,31.0,25.7,23.0,31.0,25.7,23.0,100,100,100,0.00,40.00,1,0,1,0.00
2013-1-13,32.0,27.9,21.0,32.0,27.9,21.0,100,100,100,0.00,40.00,0,0,1,0.00
2013-1-14,34.0,31.9,31.0,34.0,31.9,31.0,100,100,100,0.00,40.00,1,0,1,0.00
2013-1-15,33.0,29.7,26.0,33.0,29.7,26.0,100,100,100,0.00,40.00,1,0,1,0.00
2013-1-16,33.0,31.6,30.0,33.0,31.6,30.0,100,100,100,0.00,40.00,1,0,1,0.00
2013-1-17,33.0,31.2,29.0,33.0,31.2,29.0,100,100,100,0.00,40.00,3,0,5,0.00
2013-1-18,33.0,30.7,27.0,33.0,30.7,27.0,100,100,100,0.00,40.00,1,0,2,0.00
2013-1-19,34.0,31.3,30.0,34.0,31.3,30.0,100,100,100,0.00,40.00,1,0,1,0.00
2013-1-20,32.0,29.6,28.0,32.0,29.6,28.0,100,100,100,0.00,40.00,1,0,2,0.00
2013-1-21,32.0,29.6,24.0,32.0,29.6,24.0,100,100,100,0.00,40.00,2,0,3,0.00
2013-1-22,33.0,31.7,31.0,33.0,31.7,31.0,100,100,100,0.00,40.00,2,0,3,0.00
2013-1-23,37.0,34.3,32.0,37.0,34.3,32.0,100,100,100,0.00,40.00,1,0,1,0.00
2013-1-24,36.0,32.2,29.0,36.0,32.2,29.0,100,100,100,0.00,40.00,1,0,1,0.00
2013-1-25,39.0,32.8,31.0,39.0,32.8,31.0,100,100,100,0.00,40.00,2,0,3,0.00
2013-1-26,40.0,35.1,31.0,40.0,35.1,31.0,100,100,100,0.00,40.00,1,0,2,0.00
2013-1-27,40.0,35.3,31.0,40.0,35.3,31.0,100,100,100,0.00,40.00,1,0,1,0.00
2013-1-28,39.0,36.9,33.0,39.0,36.9,33.0,100,100,100,0.00,40.00,1,1,3,0.00
2013-1-29,40.0,39.6,39.0,40.0,39.6,39.0,100,100,100,0.00,40.00,1,1,2,0.00
2013-1-31,46.0,43.8,41.0,46.0,43.8,41.0,100,100,100,0.00,40.00,1,0,2,0.00
2013-2-1,43.0,39.9,31.0,43.0,39.8,31.0,100,100,96,0.00,40.00,2,1,5,0.00
2013-2-2,43.0,37.1,32.0,42.0,37.0,32.0,100,100,96,0.00,40.00,1,0,3,0.00
2013-2-3,43.0,38.1,31.0,43.0,38.1,31.0,100,100,100,0.00,40.00,1,0,2,0.00
2013-2-4,43.0,39.8,37.0,43.0,39.8,37.0,100,100,100,0.00,40.00,2,1,3,0.00
2013-2-5,46.0,41.4,38.0,44.0,40.8,38.0,100,98,82,0.00,40.00,5,1,14,0.00
2013-2-6,43.0,39.2,37.0,43.0,39.2,37.0,100,100,100,0.00,40.00,2,1,3,0.00
2013-2-7,44.0,37.8,32.0,40.0,37.2,32.0,100,98,79,0.00,40.00,7,2,9,0.00
2013-2-8,38.0,33.2,30.0,38.0,33.2,30.0,100,100,100,0.00,40.00,1,0,2,0.00
2013-2-9,43.0,38.7,33.0,43.0,38.7,33.0,100,100,100,0.00,40.00,1,0,1,0.00
2013-2-10,43.0,39.5,33.0,42.0,39.4,33.0,100,100,96,0.00,40.00,2,1,5,0.00
2013-2-11,45.0,40.3,36.0,45.0,40.3,36.0,100,100,100,0.00,40.00,1,0,2,0.00
2013-2-12,47.0,41.0,37.0,45.0,40.6,37.0,100,99,89,0.00,40.00,7,1,10,0.00
2013-2-13,47.0,41.0,34.0,45.0,40.0,34.0,100,96,76,0.00,40.00,2,1,3,0.00
2013-2-14,47.0,42.3,40.0,45.0,42.0,40.0,100,99,92,0.00,40.00,2,1,6,0.00
2013-2-15,46.0,42.8,41.0,46.0,42.6,41.0,100,99,92,0.00,40.00,2,1,3,0.00
2013-2-16,43.0,40.1,38.0,43.0,40.0,38.0,100,100,96,0.00,40.00,1,1,3,0.00
2013-2-17,42.0,36.8,29.0,40.0,35.8,29.0,100,96,89,0.00,40.00,1,0,2,0.00
2013-2-18,42.0,35.3,31.0,40.0,35.0,31.0,100,99,92,0.00,40.00,1,0,2,0.00
2013-2-19,40.0,35.6,31.0,40.0,35.6,31.0,100,100,100,0.00,40.00,1,0,2,0.00
2013-2-20,39.0,34.3,28.0,39.0,34.3,28.0,100,100,100,0.00,40.00,1,0,1,0.00
2013-2-21,42.0,37.4,33.0,42.0,37.4,33.0,100,100,100,0.00,40.00,2,1,2,0.00
2013-2-22,43.0,38.3,34.0,43.0,38.2,34.0,100,100,96,0.00,40.00,7,2,18,0.00
2013-2-23,43.0,37.0,33.0,40.0,36.1,33.0,100,97,76,0.00,40.00,8,2,17,0.00
2013-2-24,49.0,40.6,35.0,43.0,38.2,35.0,100,92,60,0.00,40.00,5,2,9,0.00
2013-2-25,43.0,39.4,33.0,41.0,35.5,29.0,100,87,57,0.00,40.00,12,3,22,0.00
2013-2-26,43.0,35.9,28.0,38.0,34.5,28.0,100,95,82,0.00,40.00,3,1,6,0.00
2013-2-27,42.0,37.7,33.0,42.0,37.6,33.0,100,100,96,0.00,40.00,3,1,5,0.00
2013-2-28,43.0,40.2,36.0,43.0,40.2,36.0,100,100,100,0.00,40.00,5,1,6,0.00
2013-3-1,60.0,50.4,44.0,50.0,46.1,44.0,100,87,55,0.00,40.00,10,4,20,0.00
2013-3-2,48.0,42.9,35.0,48.0,42.8,35.0,100,100,96,0.00,40.00,3,1,7,0.00
2013-3-3,43.0,35.3,30.0,38.0,34.3,30.0,100,97,82,0.00,40.00,6,1,7,0.00
2013-3-4,40.0,32.3,27.0,38.0,31.5,27.0,100,97,85,0.00,40.00,2,0,3,0.00
2013-3-5,42.0,37.5,30.0,40.0,36.3,30.0,100,95,79,0.00,40.00,6,2,10,0.00
2013-3-6,40.0,38.7,38.0,40.0,38.7,38.0,100,100,100,0.00,40.00,1,0,2,0.00
2013-3-7,44.0,38.9,35.0,43.0,38.8,35.0,100,100,96,0.00,40.00,1,0,2,0.00
2013-3-8,45.0,36.7,32.0,42.0,35.9,32.0,100,97,82,0.00,40.00,3,1,7,0.00
2013-3-9,45.0,35.9,29.0,42.0,35.1,29.0,100,97,89,0.00,40.00,2,0,6,0.00
2013-3-10,43.0,40.4,38.0,42.0,40.3,38.0,100,99,96,0.00,40.00,2,0,3,0.00
2013-3-11,46.0,42.1,39.0,43.0,41.1,39.0,100,96,85,0.00,40.00,2,1,5,0.00
2013-3-12,49.0,45.9,41.0,49.0,45.9,41.0,100,100,100,0.00,40.00,5,1,7,0.00
2013-3-13,52.0,47.8,44.0,52.0,47.5,44.0,100,99,92,0.00,40.00,6,2,7,0.00
2013-3-14,51.0,46.1,43.0,50.0,46.0,43.0,100,100,96,0.00,40.00,2,1,3,0.00
2013-3-15,51.0,45.7,39.0,51.0,45.7,39.0,100,100,100,0.00,40.00,1,0,3,0.00
2013-3-16,45.0,40.5,34.0,45.0,40.5,34.0,100,100,96,0.00,40.00,3,1,7,0.00
2013-3-17,42.0,37.1,33.0,40.0,36.0,33.0,100,96,79,0.00,40.00,3,1,8,0.00
2013-3-18,47.0,39.4,35.0,38.0,36.2,34.0,100,89,65,0.00,40.00,8,2,10,0.00
2013-3-19,45.0,37.3,30.0,40.0,35.5,30.0,100,94,70,0.00,40.00,5,1,8,0.00
2013-3-20,46.0,41.5,34.0,46.0,41.0,34.0,100,98,92,0.00,40.00,8,3,14,0.00
2013-3-21,39.0,33.9,31.0,37.0,33.6,31.0,100,99,92,0.00,40.00,2,1,6,0.00
2013-3-22,40.0,33.7,30.0,37.0,33.3,30.0,100,98,88,0.00,40.00,2,1,6,0.00
2013-3-23,43.0,35.4,30.0,39.0,33.4,30.0,100,93,70,0.00,40.00,2,0,3,0.00
2013-3-24,46.0,37.1,30.0,39.0,34.5,30.0,100,91,70,0.00,40.00,3,1,7,0.00
2013-3-25,51.0,39.9,30.0,42.0,36.9,30.0,100,90,63,0.00,40.00,5,1,7,0.00
2013-3-26,54.0,45.3,37.0,45.0,41.0,37.0,100,86,58,0.00,40.00,3,1,6,0.00
2013-3-27,55.0,45.6,39.0,47.0,43.1,39.0,100,92,65,0.00,40.00,2,1,2,0.00
2013-3-28,52.0,44.5,36.0,50.0,43.9,36.0,100,98,89,0.00,40.00,1,0,2,0.00
2013-3-29,58.0,45.5,34.0,48.0,42.0,34.0,100,89,64,0.00,40.00,3,0,5,0.00
2013-3-30,59.0,45.5,32.0,47.0,34.7,-99.9,100,86,64,0.00,40.00,3,1,6,0.00
2013-3-31,61.0,47.2,34.0,48.0,42.2,34.0,100,84,55,0.00,40.00,3,1,7,0.00
2013-4-1,59.0,47.6,35.0,47.0,43.6,35.0,100,86,61,0.00,40.00,6,1,10,0.00
2013-4-2,49.0,47.0,45.0,44.0,43.3,42.0,96,87,76,0.00,40.00,3,1,5,0.00
2013-4-3,56.0,49.0,44.0,46.0,44.4,42.0,100,85,66,0.00,40.00,5,2,7,0.00
2013-4-4,49.0,47.0,44.0,48.0,46.1,44.0,100,96,92,0.00,40.00,1,1,3,0.00
2013-4-5,52.0,48.2,44.0,51.0,47.6,44.0,100,98,92,0.00,40.00,2,1,5,0.00
2013-4-6,50.0,45.6,42.0,47.0,44.6,42.0,100,96,79,0.00,40.00,1,1,5,0.00
2013-4-7,47.0,42.1,38.0,44.0,41.1,38.0,100,96,79,0.00,40.00,6,1,12,0.00
2013-4-8,53.0,45.4,36.0,46.0,43.0,36.0,100,92,68,0.00,40.00,1,0,3,0.00
2013-4-9,47.0,44.4,41.0,45.0,43.5,40.0,100,96,92,0.00,40.00,1,0,2,0.00
2013-4-10,56.0,46.6,39.0,46.0,42.2,36.0,100,87,52,0.00,40.00,9,2,14,0.00
2013-4-11,52.0,45.1,35.0,37.0,36.1,34.0,100,72,52,0.00,40.00,8,4,14,0.00
2013-4-12,41.0,38.7,36.0,40.0,37.0,35.0,100,93,85,0.00,40.00,5,1,7,0.00
2013-4-13,48.0,39.2,35.0,44.0,37.5,34.0,100,94,73,0.00,40.00,8,2,18,0.00
2013-4-15,52.0,46.2,37.0,42.0,38.6,36.0,96,76,54,0.00,40.00,3,2,8,0.00
2013-4-16,56.0,44.7,30.0,40.0,32.6,22.0,100,68,26,0.00,40.00,9,2,12,0.00
2013-4-17,52.0,44.1,32.0,43.0,38.8,31.0,100,83,58,0.00,40.00,6,2,12,0.00
2013-4-18,49.0,44.1,41.0,47.0,43.5,41.0,100,98,86,0.00,40.00,3,1,5,0.00
2013-4-19,51.0,46.4,43.0,50.0,46.1,43.0,100,99,92,0.00,40.00,3,1,7,0.00
2013-4-20,53.0,46.7,37.0,49.0,43.8,37.0,100,90,74,0.00,40.00,7,2,16,0.00
2013-4-21,51.0,43.7,32.0,45.0,39.2,32.0,100,86,52,0.00,40.00,10,2,16,0.00
2013-4-22,57.0,44.5,30.0,42.0,33.5,21.0,100,70,26,0.00,40.00,2,1,6,0.00
2013-4-23,60.0,47.3,29.0,35.0,30.6,24.0,100,59,24,0.00,40.00,5,2,7,0.00
2013-4-24,65.0,53.2,33.0,42.0,34.6,26.0,96,56,22,0.00,40.00,8,2,12,0.00
2013-4-25,64.0,52.5,37.0,47.0,42.2,36.0,100,71,44,0.00,40.00,5,2,9,0.00
2013-4-26,61.0,50.9,37.0,46.0,42.9,37.0,100,76,47,0.00,40.00,7,2,14,0.00
2013-4-27,55.0,49.4,42.0,47.0,45.2,41.0,100,85,68,0.00,40.00,5,1,6,0.00
2013-4-28,53.0,46.0,40.0,45.0,42.9,38.0,100,90,56,0.00,40.00,5,2,9,0.00
2013-4-29,52.0,45.3,39.0,43.0,32.9,23.0,100,66,31,0.00,40.00,12,4,16,0.00
2013-4-30,52.0,44.2,33.0,36.0,30.5,25.0,92,61,36,0.00,40.00,6,2,10,0.00
2013-5-1,58.0,46.8,29.0,42.0,34.1,29.0,100,65,38,0.00,40.00,6,2,12,0.00
2013-5-2,63.0,51.5,34.0,41.0,35.5,28.0,100,59,27,0.00,40.00,6,2,9,0.00
2013-5-3,69.0,55.4,35.0,46.0,41.2,34.0,96,62,33,0.00,40.00,6,2,9,0.00
2013-5-4,72.0,60.9,40.0,42.0,39.4,33.0,96,50,24,0.00,40.00,5,2,9,0.00
2013-5-5,76.0,62.7,41.0,48.0,44.2,39.0,92,55,30,0.00,40.00,5,1,6,0.00
2013-5-6,80.0,61.3,44.0,52.0,47.4,42.0,96,64,25,0.00,40.00,3,1,7,0.00
2013-5-7,66.0,53.3,43.0,50.0,46.9,42.0,96,81,52,0.00,40.00,6,2,9,0.00
2013-5-8,65.0,53.0,48.0,51.0,48.1,46.0,96,84,60,0.00,40.00,6,2,8,0.00
2013-5-9,66.0,52.1,40.0,51.0,45.9,40.0,100,81,52,0.00,40.00,7,2,9,0.00
2013-5-10,72.0,49.6,32.0,51.0,43.3,32.0,100,83,28,0.00,40.00,2,1,5,0.00
2013-5-11,69.0,55.3,32.0,55.0,49.6,32.0,100,82,47,0.00,40.00,7,1,9,0.00
2013-5-12,61.0,53.8,54.0,60.0,49.1,-99.9,100,95,93,0.00,40.00,5,1,6,0.00
2013-5-13,58.0,50.5,42.0,55.0,49.9,42.0,100,98,86,0.00,40.00,3,1,5,0.00
2013-5-14,55.0,47.3,40.0,50.0,44.9,40.0,100,92,63,0.00,40.00,2,-66,5,0.00
2013-5-15,53.0,47.8,32.0,52.0,46.9,32.0,100,96,79,0.00,40.00,2,-66,3,0.00
2013-5-16,61.0,53.2,49.0,54.0,41.8,-99.9,100,90,67,0.00,40.00,6,1,7,0.00
2013-5-17,56.0,52.2,50.0,53.0,50.9,50.0,100,95,83,0.00,40.00,3,1,6,0.00
2013-5-18,53.0,50.0,45.0,53.0,49.7,45.0,100,99,92,0.00,40.00,3,-150,6,0.00
2013-5-19,59.0,53.6,45.0,50.0,47.6,44.0,100,81,61,0.00,40.00,5,2,8,0.00
2013-5-20,58.0,47.5,40.0,48.0,44.7,39.0,100,91,69,0.00,40.00,5,2,12,0.00
2013-5-21,50.0,46.1,44.0,48.0,45.5,44.0,100,97,89,0.00,40.00,2,0,3,0.00
2013-5-22,53.0,46.1,40.0,50.0,44.0,40.0,100,93,63,0.00,40.00,5,1,7,0.00
2013-5-23,53.0,47.8,44.0,49.0,46.1,44.0,100,94,82,0.00,40.00,3,1,9,0.00
2013-5-24,56.0,47.8,44.0,51.0,46.5,44.0,100,95,68,0.00,40.00,3,1,6,0.00
2013-5-25,53.0,49.6,47.0,51.0,48.7,47.0,100,96,92,0.00,40.00,1,0,2,0.00
2013-5-26,55.0,48.4,32.0,54.0,48.0,32.0,100,98,92,0.00,40.00,2,0,3,0.00
2013-5-27,56.0,49.3,32.0,53.0,49.0,32.0,100,99,89,0.00,40.00,3,1,8,0.00
2013-5-28,55.0,51.1,49.0,52.0,50.6,49.0,100,98,86,0.00,40.00,3,1,9,0.00
2013-5-29,56.0,49.4,47.0,50.0,48.0,47.0,100,95,74,0.00,40.00,7,1,10,0.00
2013-5-30,54.0,48.1,43.0,52.0,47.6,43.0,100,98,86,0.00,40.00,2,1,3,0.00
2013-5-31,57.0,51.6,45.0,52.0,48.7,45.0,100,90,71,0.00,40.00,2,1,5,0.00
2013-6-1,61.0,53.2,46.0,52.0,49.4,46.0,100,88,59,0.00,40.00,2,1,3,0.00
2013-6-2,66.0,56.8,50.0,53.0,50.2,47.0,100,80,50,0.00,40.00,3,1,7,0.00
2013-6-3,67.0,57.5,43.0,53.0,49.0,43.0,100,75,50,0.00,40.00,5,2,8,0.00
2013-6-4,74.0,62.8,42.0,51.0,44.7,39.0,100,58,28,0.00,40.00,5,3,7,0.00
2013-6-5,65.0,55.7,32.0,55.0,50.9,32.0,100,84,67,0.00,40.00,3,1,7,0.00
2013-6-6,71.0,60.1,46.0,55.0,50.2,46.0,100,72,43,0.00,40.00,5,2,9,0.00
2013-6-7,59.0,51.6,32.0,48.0,44.9,32.0,100,78,66,0.00,40.00,5,2,7,0.00
2013-6-8,60.0,54.3,42.0,49.0,46.6,42.0,100,76,57,0.00,40.00,6,3,10,0.00
2013-6-9,62.0,54.0,42.0,46.0,43.9,40.0,100,70,47,0.00,40.00,12,4,17,0.00
2013-6-10,61.0,51.0,42.0,49.0,45.3,41.0,96,82,55,0.00,40.00,5,2,9,0.00
2013-6-11,56.0,52.0,43.0,50.0,46.3,42.0,96,81,63,0.00,40.00,3,1,6,0.00
2013-6-12,55.0,51.9,46.0,52.0,49.6,46.0,100,92,77,0.00,40.00,3,1,5,0.00
2013-6-13,59.0,52.5,48.0,51.0,49.3,48.0,100,90,74,0.00,40.00,2,0,3,0.00
2013-6-14,60.0,52.2,46.0,50.0,48.2,45.0,96,87,69,0.00,40.00,5,1,7,0.00
2013-6-15,67.0,60.8,42.0,54.0,49.9,41.0,96,69,52,0.00,40.00,5,2,9,0.00
2013-6-16,63.0,55.8,46.0,53.0,50.0,46.0,100,82,67,0.00,40.00,6,2,10,0.00
2013-6-17,67.0,57.7,32.0,56.0,50.1,32.0,100,77,54,0.00,40.00,6,2,9,0.00
2013-6-18,61.0,55.3,50.0,54.0,51.9,50.0,100,88,77,0.00,40.00,6,2,9,0.00
2013-6-19,63.0,55.5,49.0,52.0,50.5,49.0,100,84,64,0.00,40.00,6,2,12,0.00
2013-6-22,66.0,64.0,61.0,54.0,52.6,51.0,77,66,58,0.00,40.00,3,2,6,0.00
2013-6-23,60.0,57.5,55.0,59.0,55.5,52.0,96,92,89,0.00,40.00,1,0,2,0.00
2013-6-24,59.0,57.4,56.0,57.0,56.3,55.0,100,96,86,0.00,40.00,3,1,7,0.00
2013-6-25,61.0,59.0,54.0,58.0,56.2,54.0,100,90,83,0.00,40.00,3,2,5,0.00
2013-6-26,62.0,60.3,58.0,60.0,58.7,57.0,96,94,93,0.00,40.00,5,1,6,0.00
2013-6-27,63.0,58.4,55.0,61.0,57.2,55.0,100,96,86,0.00,40.00,6,1,9,0.00
2013-6-28,72.0,68.0,58.0,63.0,61.6,58.0,100,80,73,0.00,40.00,3,3,6,0.00
2013-6-29,77.0,68.5,59.0,62.0,60.5,58.0,96,77,55,0.00,40.00,5,2,7,0.00
2013-6-30,77.0,65.3,55.0,65.0,58.5,55.0,100,80,65,0.00,40.00,1,0,2,0.00
2013-7-3,70.0,66.7,65.0,55.0,55.0,55.0,70,66,58,0.00,40.00,6,4,10,0.00
2013-7-4,65.0,63.7,61.0,53.0,53.0,53.0,74,68,65,0.00,40.00,3,3,8,0.00
2013-7-5,55.0,54.5,54.0,52.0,51.5,51.0,92,89,86,0.00,40.00,0,0,1,0.00
2013-7-6,70.0,60.0,48.0,57.0,52.0,47.0,96,76,63,0.00,40.00,1,1,2,0.00
2013-7-7,57.0,57.0,57.0,55.0,55.0,55.0,93,93,93,0.00,40.00,1,1,1,0.00
2013-7-8,56.0,56.0,56.0,53.0,53.0,53.0,89,89,89,0.00,40.00,1,1,2,0.00
2013-7-9,58.0,56.5,55.0,54.0,53.5,53.0,92,89,86,0.00,40.00,2,1,5,0.00
2013-7-15,60.0,60.0,60.0,50.0,50.0,50.0,69,69,69,0.00,40.00,0,0,1,0.00
2013-7-16,78.0,67.0,56.0,49.0,47.5,46.0,77,54,32,0.00,40.00,2,1,5,0.00
2013-7-17,62.0,62.0,62.0,57.0,57.0,57.0,83,83,83,0.00,40.00,2,2,3,0.00
2013-7-18,67.0,62.0,57.0,55.0,54.0,53.0,86,76,65,0.00,40.00,7,4,12,0.00
2013-7-19,68.0,68.0,68.0,56.0,56.0,56.0,65,65,65,0.00,40.00,6,6,10,0.00
2013-7-20,65.0,61.3,56.0,56.0,54.7,53.0,89,79,72,0.00,40.00,5,3,7,0.00
2013-7-21,70.0,66.1,58.0,57.0,56.2,55.0,89,71,63,0.00,40.00,5,3,7,0.00
2013-7-22,69.0,57.4,53.0,58.0,53.4,51.0,96,87,67,0.00,40.00,3,1,5,0.00
2013-7-23,56.0,53.5,51.0,54.0,52.0,50.0,96,94,92,0.00,40.00,0,0,0,0.00
2013-7-24,54.0,54.0,54.0,52.0,52.0,52.0,92,92,92,0.00,40.00,0,0,0,0.00
2013-7-25,74.0,67.0,53.0,56.0,54.3,51.0,92,66,53,0.00,40.00,3,2,10,0.00
2013-7-26,72.0,63.4,48.0,54.0,50.7,47.0,96,65,51,0.00,40.00,6,2,10,0.00
2013-7-27,68.0,68.0,68.0,51.0,51.0,51.0,54,54,54,0.00,40.00,3,3,6,0.00
2013-7-28,67.0,56.8,51.0,54.0,51.5,49.0,92,83,62,0.00,40.00,1,0,1,0.00
2013-7-29,67.0,58.4,51.0,55.0,52.6,50.0,96,82,62,0.00,40.00,2,1,5,0.00
2013-7-30,61.0,58.7,57.0,55.0,54.0,53.0,89,84,80,0.00,40.00,3,2,9,0.00
2013-7-31,57.0,54.4,50.0,54.0,52.4,49.0,96,92,89,0.00,40.00,2,1,3,0.00
2013-8-1,65.0,54.3,53.0,56.0,36.9,-99.9,96,69,67,0.00,40.00,5,3,10,0.00
2013-8-2,59.0,57.2,55.0,56.0,54.7,53.0,92,90,89,0.00,40.00,2,0,3,0.00
2013-8-3,64.0,60.2,56.0,57.0,56.2,55.0,96,86,77,0.00,40.00,5,2,7,0.00
2013-8-4,70.0,60.2,50.0,59.0,55.5,49.0,100,85,68,0.00,40.00,1,0,1,0.00
2013-8-5,71.0,58.7,51.0,58.0,53.7,50.0,96,85,63,0.00,40.00,1,0,1,0.00
2013-8-6,71.0,55.2,48.0,57.0,51.5,47.0,100,88,59,0.00,40.00,1,0,2,0.00
2013-8-7,53.0,51.0,50.0,52.0,50.0,49.0,96,96,96,0.00,40.00,0,0,0,0.00
2013-8-8,65.0,58.3,55.0,56.0,54.2,53.0,96,86,72,0.00,40.00,3,1,5,0.00
2013-8-9,74.0,59.5,52.0,63.0,42.0,-99.9,96,68,57,0.00,40.00,3,0,5,0.00
2013-8-10,69.0,64.8,58.0,58.0,56.8,56.0,93,76,65,0.00,40.00,7,4,12,0.00
2013-8-11,66.0,59.1,55.0,56.0,54.0,53.0,100,83,67,0.00,40.00,3,2,7,0.00
2013-8-12,61.0,56.0,52.0,56.0,54.2,52.0,100,94,80,0.00,40.00,1,0,1,0.00
2013-8-13,69.0,65.5,62.0,56.0,54.0,52.0,80,67,54,0.00,40.00,5,2,9,0.00
2013-8-14,64.0,56.0,51.0,62.0,54.7,50.0,96,95,93,0.00,40.00,0,0,1,0.00
2013-8-15,65.0,59.8,58.0,61.0,59.0,58.0,100,97,86,0.00,40.00,1,1,3,0.00
2013-8-16,63.0,57.0,53.0,58.0,55.3,53.0,100,94,83,0.00,40.00,1,0,1,0.00
2013-8-18,63.0,60.3,57.0,58.0,56.7,56.0,96,87,83,0.00,40.00,5,2,9,0.00
2013-8-19,58.0,45.7,52.0,53.0,26.2,-99.9,96,74,83,0.00,40.00,3,1,5,0.00
2013-8-21,69.0,59.0,53.0,48.0,47.2,45.0,83,67,47,0.00,40.00,1,0,2,0.00
2013-8-22,78.0,70.0,46.0,56.0,52.5,44.0,92,57,45,0.00,40.00,1,1,3,0.00
2013-8-23,64.0,61.5,59.0,58.0,57.0,56.0,96,86,75,0.00,40.00,2,1,5,0.00
2013-8-24,60.0,57.3,55.0,58.0,56.3,55.0,100,96,89,0.00,40.00,0,0,1,0.00
2013-8-25,61.0,53.3,49.0,57.0,51.9,49.0,100,95,86,0.00,40.00,1,0,1,0.00
2013-8-26,59.0,52.3,49.0,54.0,50.7,49.0,100,94,83,0.00,40.00,0,0,1,0.00
2013-9-2,72.0,61.2,52.0,60.0,55.2,52.0,100,83,57,0.00,40.00,2,1,5,0.00
2013-9-3,63.0,60.0,55.0,62.0,59.7,55.0,100,99,96,0.00,40.00,1,1,2,0.00
2013-9-4,65.0,58.2,53.0,63.0,57.4,53.0,100,97,93,0.00,40.00,0,0,1,0.00
2013-9-5,55.0,54.0,53.0,55.0,54.0,53.0,100,100,100,0.00,40.00,1,0,1,0.00
2013-9-12,61.0,61.0,61.0,59.0,59.0,59.0,93,93,93,0.00,40.00,0,0,1,0.00
2013-9-21,57.0,49.5,53.0,56.0,39.3,-99.9,100,89,96,0.00,40.00,1,0,2,0.00
2013-9-22,50.0,50.0,50.0,50.0,50.0,50.0,100,100,100,0.00,40.00,1,1,2,0.00
2013-9-23,52.0,49.3,46.0,52.0,49.3,46.0,100,100,100,0.00,40.00,1,1,1,0.00
2013-9-26,55.0,55.0,55.0,51.0,51.0,51.0,86,86,86,0.00,40.00,1,1,1,0.00
2013-9-27,53.0,53.0,53.0,53.0,53.0,53.0,100,100,100,0.00,40.00,0,0,1,0.00
2013-9-28,53.0,48.8,48.0,53.0,48.8,48.0,100,100,100,0.00,40.00,9,2,15,0.00
2013-9-29,52.0,49.0,47.0,49.0,48.0,47.0,100,96,89,0.00,40.00,10,4,14,0.00
2013-10-3,45.0,45.0,45.0,45.0,45.0,45.0,100,100,100,0.00,40.00,0,0,1,0.00
2013-10-9,50.0,48.0,46.0,49.0,47.5,46.0,100,98,96,0.00,40.00,1,0,2,0.00
2013-10-10,47.0,46.4,45.0,47.0,46.4,45.0,100,100,100,0.00,40.00,1,0,2,0.00
2013-10-11,47.0,44.8,42.0,47.0,44.8,42.0,100,100,100,0.00,40.00,0,0,1,0.00
2013-10-19,49.0,46.8,44.0,47.0,45.2,44.0,100,94,86,0.00,40.00,5,2,6,0.00
2013-10-20,45.0,42.5,41.0,45.0,42.5,41.0,100,100,100,0.00,40.00,0,0,1,0.00
2013-10-21,49.0,42.8,40.0,49.0,42.8,40.0,100,100,100,0.00,40.00,1,0,1,0.00
2013-10-22,51.0,45.3,40.0,51.0,45.3,40.0,100,100,100,0.00,40.00,0,0,1,0.00
2013-10-23,52.0,50.3,47.0,51.0,49.3,47.0,100,96,92,0.00,40.00,1,0,1,0.00
2013-10-24,52.0,49.6,44.0,51.0,49.2,44.0,100,98,96,0.00,40.00,1,1,1,0.00
2013-10-25,51.0,47.0,44.0,50.0,46.7,44.0,100,99,96,0.00,40.00,0,0,0,0.00
2013-10-26,49.0,38.5,44.0,49.0,21.9,-99.9,100,83,100,0.00,40.00,1,0,2,0.00
2013-10-27,50.0,46.4,43.0,50.0,46.4,43.0,100,100,100,0.00,40.00,1,1,5,0.00
2013-10-28,47.0,47.0,47.0,36.0,36.0,36.0,65,65,65,0.00,40.00,2,2,3,0.00
2013-10-30,50.0,45.8,40.0,46.0,43.5,40.0,100,92,82,0.00,40.00,0,0,1,0.00
2013-10-31,54.0,46.7,44.0,53.0,46.5,44.0,100,99,96,0.00,40.00,1,0,1,0.00
2013-11-1,50.0,48.4,47.0,50.0,48.4,47.0,100,100,100,0.00,40.00,5,1,8,0.00
2013-11-2,47.0,46.2,45.0,47.0,46.2,45.0,100,100,100,0.00,40.00,5,3,9,0.00
2013-11-4,42.0,42.0,42.0,42.0,42.0,42.0,100,100,100,0.00,40.00,1,1,1,0.00
2013-11-5,42.0,39.8,37.0,42.0,39.8,37.0,100,100,100,0.00,40.00,2,0,3,0.00
2013-11-6,44.0,42.5,35.0,44.0,42.5,35.0,100,100,100,0.00,40.00,5,2,7,0.00
2013-11-7,47.0,45.0,44.0,47.0,44.3,43.0,100,98,85,0.00,40.00,12,3,20,0.00
2013-11-8,46.0,43.4,42.0,46.0,43.4,42.0,100,100,100,0.00,40.00,1,1,2,0.00
2013-11-9,44.0,33.2,40.0,44.0,13.2,-99.9,100,80,100,0.00,40.00,0,0,1,0.00
2013-11-10,44.0,41.3,40.0,44.0,41.3,40.0,100,100,100,0.00,40.00,2,0,3,0.00
2013-11-11,44.0,44.0,44.0,44.0,44.0,44.0,100,100,100,0.00,40.00,0,0,1,0.00
2013-11-12,48.0,47.0,46.0,48.0,47.0,46.0,100,100,100,0.00,40.00,0,0,1,0.00
2013-11-13,49.0,46.4,44.0,49.0,46.4,44.0,100,100,100,0.00,40.00,1,1,2,0.00
2013-11-14,46.0,43.3,41.0,46.0,43.3,41.0,100,100,100,0.00,40.00,1,0,2,0.00
2013-11-15,42.0,42.0,42.0,42.0,42.0,42.0,100,100,100,0.00,40.00,1,1,3,0.00
2013-11-17,45.0,43.5,42.0,45.0,43.5,42.0,100,100,100,0.00,40.00,1,1,2,0.00
2013-11-18,43.0,41.5,40.0,43.0,41.5,40.0,100,100,100,0.00,40.00,5,2,7,0.00